User: anonymous   Login
Location: Banios
(43.0451°N, 0.2335°E)
Time: 03:58:40
(UTC+00:00)
Language:

Cosmos 2298 Rocket - Orbit

View from above orbital plane
View from above orbital plane
View from above satellite
View from above satellite

Ground track
Ground track

The orbit data is extracted from the following two-line orbital elements,

1 23432U 94083B   21107.52032550  .00000005  00000-0  11234-4 0  9991
2 23432  74.0312 257.0845 0004569 133.7918 291.9668 14.33556421376731
Epoch (UTC): 17 April 2021 12:29:16
Eccentricity: 0.0004569
inclination: 74.0312°
perigee height: 776 km
apogee height: 783 km
right ascension of ascending node: 257.0845°
argument of perigee: 133.7918°
revolutions per day: 14.33556421
mean anomaly at epoch: 291.9668°
orbit number at epoch: 37673

The dashed part of the orbit path shows where the satellite is in the earth's shadow,  

DLR